Погода в Нижней Теберде

Россия / Карачаево-Черкесская Республика     43°38′16″N   41°52′38″E
темп.,
°C
ветер,
м/с
пор.,
м/с
влажн.,
%
обл.,
%
осадки,
мм/ч
давл.,
гПа
погр.,
м
14 апреля, ср
ср1400:00+2ююв0198100 1.9 1020237
03:00+2ююз118962 2.1 1019114
06:000ю229020 0.0 102142
09:00+6ссв116796 0.0 1017520
12:00+10сз225499 0.1 10151172
15:00+9ссз226591 2.6 1015920
18:00+6ссз238487 2.9 1017355
21:00+4ю119273 3.3 101965
15 апреля, чт
чт1500:000юв23815 0.0 102148
03:000юв33735 0.0 102148
06:000юв33676 0.0 102149
09:00+9юв11345 0.0 1017509
12:00+12ссз222850 0.0 10151492
15:00+13ссз3336100 0.0 10141778
18:00+9с2362100 0.1 101696
21:00+5ю117968 0.1 101911
16 апреля, пт
пт1600:00+3юв227816 0.0 101938
03:00+3юв2370100 0.0 101943
06:00+3юв2367100 0.0 101959
09:00+11юв1141100 0.0 1016624
12:00+14сз243599 0.1 10142341
15:00+12сз2453100 1.3 10151471
18:00+10ссз236924 1.3 1016126
21:00+5ююв019240 1.8 101911
17 апреля, сб
сб1700:00+5юв118467 0.0 101953
03:00+3вюв1182100 0.0 101911
06:00+4вюв1192100 0.0 102165
09:00+6сз2186100 0.2 1020536
12:00+6ссз2291100 0.3 1020468
15:00+5ссз2293100 0.4 1022513
18:00+5с1195100 0.1 1022298
21:00+4ссз1195100 0.1 102283
18 апреля, вс
вс1800:00+3св1194100 0.0 102110
03:00+4в1187100 0.0 101910
06:00+3св009489 0.0 102011
09:00+10ююв1366100 0.1 1016508
12:00+15сз3454100 0.2 10141080
15:00+15зсз2560100 1.4 10141015
18:00+12юз12795 1.9 1016121
21:00+7ююв22899 2.3 101823